Location: Cormont
(50.5693°N, 1.7416°E)
Time: 22:48:57
(UTC+00:00)

STARLINK-51 - Pass Details

Date: 21 October 2019
Orbit: 549 x 551 km, 53.0° (Epoch: 17 November)

Event Time Altitude Azimuth Distance (km) Brightness Sun altitude
Rises 18:24:28 0° 278° (W) 2,718 9.0 -15.7°
Reaches altitude 10° 18:26:44 10° 282° (WNW) 1,825 7.6 -16.1°
Maximum altitude 18:30:50 61° 3° (N) 628 3.8 -16.7°
Enters shadow 18:32:27 34° 70° (ENE) 923 4.3 -17.0°
